Probability
0 0 0 0 1 2 3 4 4 4 5 9 11 11 9 5 2 0 0 0 0 0 0 0 0 0 0 0 0 0 0 0 0 0 0 0 0 0 0 0 0 0 0
0 0 0 0 1 3 3 3 3 3 5 8 9 10 9 6 3 1 0 0 0 0 0 0 0 0 0 0 0 0 0 0 0 0 0 0 0 0 0 0 0 0 0
1 1 0 1 2 4 4 3 3 2 4 7 8 9 8 6 3 1 0 0 0 0 0 0 0 0 0 0 0 0 0 0 0 0 0 0 0 0 0 0 0 0 0
2 2 1 2 4 5 5 4 2 2 3 6 8 9 6 4 2 0 0 0 0 0 0 0 0 0 0 0 0 0 0 0 0 0 0 0 0 0 0 0 0 0 0
4 3 2 4 5 6 6 4 2 2 3 6 7 7 5 3 2 2 1 0 0 0 0 0 0 0 0 0 0 0 0 0 0 0 0 0 0 0 0 0 0 0 0
7 5 4 5 6 6 6 4 3 3 5 6 7 7 6 5 5 4 2 0 0 0 0 0 0 0 0 0 0 0 0 0 0 0 0 0 0 0 0 0 0 0 0
10 7 5 5 6 7 7 6 5 6 7 7 8 8 8 7 8 7 4 1 0 0 1 0 0 0 0 0 0 0 0 0 0 0 0 0 0 0 0 0 0 0 0
13 11 6 5 6 8 11 11 9 10 10 9 9 10 10 9 9 8 6 2 0 1 1 1 0 0 0 0 0 0 0 0 0 0 0 0 0 0 0 0 0 0 0
14 13 8 6 7 10 13 14 13 13 13 12 12 11 10 9 7 7 6 4 1 1 2 2 2 1 1 1 1 1 1 0 0 0 0 0 0 0 0 0 0 0 0
14 13 11 9 10 11 12 13 14 14 16 16 15 12 10 8 6 5 7 6 3 1 2 4 5 5 5 5 4 3 3 1 0 0 0 0 0 0 0 0 1 1 0
16 14 13 13 12 11 11 11 11 12 15 16 14 12 11 8 6 7 10 10 7 4 3 5 6 7 7 6 5 5 5 3 1 0 0 0 0 0 0 1 1 2 1
18 15 14 14 12 11 11 9 8 9 10 11 11 10 9 7 7 8 11 13 12 9 7 7 6 6 6 6 5 6 6 4 2 1 1 0 0 1 1 1 1 2 2
18 15 13 12 11 11 9 8 8 7 6 7 8 9 8 7 7 7 9 11 13 12 10 9 8 7 7 7 6 5 5 5 4 3 2 2 1 2 2 1 0 1 1
16 14 10 9 10 10 9 9 9 8 5 5 7 8 8 8 7 7 6 8 11 11 10 9 8 8 8 8 7 6 6 6 5 4 3 3 3 2 1 0 0 0 0
12 10 9 8 7 8 8 8 8 7 6 5 6 7 8 8 8 8 6 6 9 11 9 7 6 6 7 7 7 6 6 6 4 3 4 6 7 6 4 3 1 0 0
8 8 7 6 5 5 6 6 5 4 4 5 5 6 5 4 6 6 5 5 7 9 9 6 5 5 4 5 6 6 6 6 4 3 4 8 11 10 8 6 3 1 1
7 7 6 5 3 3 3 3 2 1 1 3 3 3 2 1 2 3 2 2 4 5 6 5 5 5 3 3 4 5 6 5 4 4 4 6 9 9 8 7 4 3 2
7 6 5 4 2 1 1 1 1 0 0 1 1 1 0 0 0 0 0 0 1 2 3 3 4 4 3 2 3 3 2 2 3 4 4 3 4 5 5 5 4 3 2
5 4 4 3 1 0 0 0 0 0 0 0 0 0 0 0 0 0 0 0 0 1 1 1 2 2 1 1 2 1 0 1 2 3 3 2 2 3 3 4 3 2 1
3 3 3 2 1 0 0 1 1 1 0 0 0 0 0 0 0 0 1 1 1 1 1 0 0 0 0 0 0 0 0 0 1 1 1 2 3 3 2 2 3 2 1
4 3 3 3 1 1 1 2 2 1 0 0 0 0 0 0 0 0 1 1 1 1 2 1 1 1 0 0 0 0 0 0 0 0 1 2 3 3 3 3 4 3 1
4 3 3 2 2 2 2 2 2 1 0 0 0 0 0 0 0 0 0 0 0 1 2 2 3 2 1 0 0 0 0 0 0 0 1 2 3 3 3 4 4 3 2
2 2 2 2 3 2 1 1 1 0 0 0 0 0 0 0 0 0 0 0 0 0 1 2 3 3 2 0 0 0 0 0 0 0 0 1 2 3 3 3 4 3 3
1 2 1 1 2 1 0 0 0 0 0 0 0 0 0 0 0 0 0 0 0 0 0 1 2 3 2 1 0 0 0 0 0 0 0 0 2 3 3 3 3 3 3
1 1 1 1 1 0 0 0 0 0 0 0 0 0 0 0 0 0 0 0 0 0 0 0 1 3 3 2 0 0 0 0 0 0 0 0 1 2 2 2 3 3 3
0 1 0 0 0 0 0 0 0 0 0 0 0 0 0 0 0 0 0 0 0 0 0 0 1 2 3 1 0 0 0 0 0 0 0 0 0 1 1 1 2 3 3
Wind_Speed
7 9 15 15 15 16 16 16 17 17 17 17 17 17 17 17 16 15 14 13 12 11 11 11 11 11 12 12 12 12 12 12 12 12 12 13 12 12 12 13 12 9 13
11 11 16 16 16 16 16 16 17 17 16 16 17 16 16 16 15 14 13 13 12 11 11 11 11 11 11 12 12 12 12 12 12 11 12 11 12 12 12 12 11 8 12
13 11 14 16 16 16 16 16 16 16 16 16 16 15 15 14 14 13 13 12 11 11 11 11 11 11 11 11 11 11 11 11 10 10 10 7 8 11 11 11 11 11 11
13 10 11 16 16 16 16 16 15 16 16 15 15 15 14 14 13 12 12 12 11 11 10 10 10 10 10 10 10 10 10 10 10 9 5 5 6 10 11 11 11 11 10
11 8 11 16 15 15 15 15 15 15 15 14 14 14 13 13 12 11 11 11 11 10 10 10 9 9 9 9 8 8 8 8 9 7 4 4 4 9 11 11 11 10 10
10 8 10 15 15 14 15 15 15 14 14 13 13 13 12 12 11 11 11 10 10 10 9 9 9 8 8 7 6 6 6 6 6 5 4 4 4 9 11 11 10 10 9
9 7 9 13 13 13 13 14 14 13 13 12 12 11 11 10 10 10 10 9 9 9 9 8 8 7 6 6 5 5 4 5 4 4 4 5 5 9 11 11 10 10 10
10 8 8 13 13 12 12 12 12 11 11 11 10 10 9 9 9 9 8 8 8 7 7 7 7 6 5 4 4 3 3 3 4 4 5 5 7 10 11 11 11 10 10
8 7 6 7 9 11 11 11 11 10 9 9 8 8 8 8 8 8 7 7 7 6 6 6 6 5 4 3 2 1 1 2 3 3 5 5 8 11 11 11 11 11 10
7 6 5 5 4 5 6 10 10 9 9 9 9 8 8 7 7 7 6 6 6 6 6 5 5 4 3 2 1 1 1 2 2 2 3 5 11 12 12 12 12 12 11
6 4 4 4 4 4 4 6 7 8 8 8 6 7 6 2 2 3 5 6 6 6 6 5 5 4 3 2 2 2 1 1 2 2 3 7 11 13 13 13 13 13 12
7 5 4 4 4 3 3 3 2 2 2 2 2 3 2 2 1 2 2 5 6 6 6 6 6 4 2 1 2 2 0 2 2 2 4 9 12 13 13 13 13 13 13
6 5 3 3 3 3 2 2 1 1 1 1 2 2 2 1 0 0 1 2 2 3 2 2 2 1 1 1 1 2 2 2 2 2 4 8 10 12 13 13 13 14 14
5 4 3 3 3 3 2 2 2 1 1 1 1 1 2 1 1 1 1 1 1 1 1 1 1 2 2 3 3 3 3 2 2 2 3 7 8 10 11 12 13 14 14
5 4 3 3 2 2 2 2 2 1 1 1 1 1 2 2 2 1 1 1 1 1 1 1 2 2 2 2 2 3 3 3 3 3 2 6 7 8 10 11 11 12 13
5 4 3 3 2 3 2 2 1 1 0 0 0 1 1 1 1 1 1 1 1 1 1 1 1 1 1 2 2 3 3 3 3 3 2 3 5 6 7 9 9 10 11
4 4 3 4 3 3 2 2 1 1 1 1 1 1 1 0 1 1 1 1 1 0 1 1 0 0 1 2 2 3 2 3 3 3 2 1 2 4 5 6 6 8 9
3 3 2 3 3 3 2 2 2 2 2 1 1 1 1 1 0 0 0 1 1 0 0 1 0 0 1 1 2 2 2 2 3 3 2 1 1 1 2 3 4 6 7
3 3 3 3 3 3 3 3 3 2 2 2 2 2 2 2 1 0 0 1 1 0 0 1 0 1 1 2 2 2 2 2 2 2 1 1 1 1 1 1 3 4 5
4 3 4 4 3 4 3 3 3 3 3 3 3 3 3 2 2 1 0 1 1 0 0 0 1 1 1 1 2 2 1 1 0 1 1 0 0 1 0 1 1 2 2
4 4 3 4 3 3 2 2 2 1 1 2 3 4 4 3 3 2 2 1 1 0 1 1 1 1 1 0 1 1 1 0 1 0 0 0 0 1 0 0 0 0 1
4 3 3 3 2 2 2 1 1 2 1 2 2 4 4 4 3 3 3 2 2 1 1 1 0 1 1 1 1 1 1 1 1 1 1 1 0 1 1 1 1 0 1
4 4 3 3 3 2 2 2 2 3 2 2 3 3 4 4 4 3 3 3 2 2 1 1 1 1 1 1 1 1 1 2 1 1 1 1 1 1 1 1 1 0 0
3 4 4 3 3 2 2 2 3 2 2 1 1 1 3 4 4 4 3 3 3 2 2 2 1 1 1 1 1 1 1 1 1 0 1 1 1 1 1 1 1 1 1
4 4 4 4 3 2 3 3 3 3 2 1 1 2 3 3 4 4 4 3 3 2 2 2 2 1 0 1 1 1 0 0 1 1 1 1 1 1 1 1 1 1 1
4 4 4 4 3 3 3 3 3 4 3 3 2 2 2 2 3 4 4 3 3 2 3 2 2 2 1 0 0 0 1 1 1 1 1 1 1 1 1 1 1 1 1
Wind_Direction
146 148 144 139 132 125 120 116 114 113 113 116 120 124 127 129 131 132 132 130 127 122 117 114 113 115 117 118 119 120 120 121 123 125 125 124 123 120 117 116 113 114 115
142 146 144 141 134 128 124 121 119 118 118 118 120 123 126 128 130 132 133 131 128 124 121 118 117 118 120 122 123 124 125 127 129 131 130 128 128 125 121 120 120 121 121
137 141 143 141 136 131 128 126 124 123 122 122 123 124 126 129 131 133 133 132 130 127 124 123 122 122 122 125 127 129 130 130 129 130 124 122 130 132 131 129 128 126 125
136 137 142 142 138 134 132 131 129 128 127 126 126 127 129 130 132 133 133 133 131 129 128 127 126 126 127 130 133 134 135 132 128 124 116 130 139 141 139 137 135 133 131
131 132 146 143 141 138 136 136 135 133 132 131 131 131 132 132 132 133 134 134 133 133 133 132 131 131 132 135 136 138 141 142 140 129 132 136 140 150 147 145 144 141 140
129 132 145 143 142 142 142 141 140 138 138 137 136 136 136 135 135 135 136 137 138 138 138 138 136 134 134 136 139 143 147 156 144 141 150 153 155 161 157 156 155 152 150
131 132 142 143 144 145 146 145 145 144 143 142 141 140 139 138 138 139 140 142 143 144 144 143 141 137 136 137 138 141 151 160 145 162 168 169 177 174 170 167 163 162 161
134 131 139 145 148 150 151 150 150 149 149 147 145 144 144 144 144 145 146 149 150 152 152 151 149 146 142 138 135 134 143 156 153 175 178 180 191 187 181 176 172 172 171
129 129 132 144 150 154 154 154 153 153 151 149 150 151 153 155 155 156 157 159 162 164 164 163 162 160 156 153 145 147 166 158 137 173 185 187 202 198 190 185 182 180 179
123 126 127 130 134 141 151 159 159 158 158 158 161 163 167 170 171 174 171 176 178 181 183 182 183 183 183 193 199 216 216 123 139 178 192 201 207 206 199 194 192 190 189
132 125 127 126 124 126 139 162 163 165 167 166 168 173 169 159 174 188 190 195 199 201 203 203 203 206 215 241 261 248 217 153 182 204 210 220 216 216 209 202 199 199 198
152 146 135 136 135 134 150 135 129 145 149 149 148 158 133 136 185 211 226 216 217 217 216 219 224 226 227 234 283 281 229 211 208 218 228 230 224 221 216 209 205 206 204
153 148 143 140 138 138 133 129 119 106 113 122 140 147 140 148 167 242 271 263 255 240 230 236 239 221 212 223 241 241 239 238 227 231 237 237 228 224 220 215 211 212 211
139 133 127 134 136 132 121 125 120 118 128 141 146 139 142 158 196 226 230 237 238 219 220 228 227 233 233 242 247 252 246 238 230 231 240 237 231 230 227 221 216 217 217
127 127 122 111 113 122 117 122 118 132 152 158 167 195 180 185 209 225 237 233 222 194 197 228 235 243 249 257 263 267 262 251 240 233 246 251 245 234 232 228 222 223 222
142 133 118 118 118 111 110 115 126 131 110 79 25 292 219 212 214 216 239 255 238 202 183 219 234 254 268 260 265 265 266 259 246 237 236 259 261 247 234 228 226 228 228
147 139 142 135 123 121 121 122 105 85 72 49 8 357 1 130 199 209 217 257 265 227 167 171 198 246 269 267 267 264 265 261 249 245 238 230 254 256 241 236 236 234 234
134 130 132 123 119 122 116 104 85 74 75 57 47 33 17 33 87 108 281 273 287 307 212 190 171 253 283 285 283 280 267 257 254 250 241 227 227 253 249 245 250 243 240
117 117 103 91 104 107 100 92 82 72 60 43 36 35 18 12 21 63 311 287 285 254 268 273 218 188 242 268 266 261 254 246 252 249 235 245 238 245 259 275 265 255 251
102 97 96 88 89 94 88 80 70 65 54 49 40 32 27 16 18 20 264 283 272 250 288 285 249 225 240 269 280 281 272 258 238 267 257 247 269 265 248 264 279 297 288
103 98 100 101 101 103 98 97 89 74 47 39 37 38 38 30 24 24 11 3 354 291 275 261 227 218 249 247 269 299 315 43 117 103 352 81 40 337 42 98 95 313 316
124 114 113 113 109 98 95 105 110 109 79 58 36 36 32 33 29 35 25 8 3 15 12 333 247 188 212 210 193 241 306 335 25 36 80 74 50 54 40 33 64 53 359
136 134 131 112 92 84 89 90 86 70 57 42 32 28 19 24 30 32 28 18 4 9 357 326 295 202 198 217 191 182 192 231 298 349 35 63 57 62 35 22 33 26 13
141 118 111 105 94 89 96 107 111 106 95 64 42 34 21 26 29 34 26 20 11 2 359 339 341 264 185 214 256 248 223 193 192 273 347 21 46 54 25 1 351 357 7
125 114 108 95 82 84 92 104 108 100 102 91 67 54 34 21 24 28 27 20 12 4 3 354 346 356 330 193 205 210 161 98 194 184 233 285 352 359 355 341 345 352 347
116 108 104 95 76 68 83 96 113 118 117 104 75 51 31 17 15 18 23 16 7 9 6 354 353 14 19 44 89 139 157 182 193 189 207 231 266 287 323 333 350 358 358